CW9665 Weather Reports


time (UTC)temp
F
wind
direction
speed
knots
gust
knots
rain 1hr
in
rain 24hr
in
rain mn
in
humidity
%
barometer
mb
20260906220924 85 149 1.7 1.7 0.00 0.00 0.00 24 1021.7
20260906215918 85 146 0.9 0.9 0.00 0.00 0.00 24 1021.9
20260906214917 86 181 1.7 1.7 0.00 0.00 0.00 23 1022.2
20260906213916 86 168 0.0 0.9 0.00 0.00 0.00 25 1022.2
20260906212913 87 180 1.7 1.7 0.00 0.00 0.00 25 1022.4
20260906211909 86 133 1.7 2.6 0.00 0.00 0.00 24 1022.7
20260906210904 85 137 1.7 2.6 0.00 0.00 0.00 26 1022.9
20260906205900 84 170 1.7 1.7 0.00 0.00 0.00 28 1023.1
20260906204858 85 159 0.9 0.9 0.00 0.00 0.00 26 1023.3
20260906203856 82 180 1.7 1.7 0.00 0.00 0.00 29 1023.1
20260906202855 80 152 0.0 0.0 0.00 0.00 0.00 31 1023.7
20260906201855 82 144 0.9 1.7 0.00 0.00 0.00 29 1023.6
20260906200851 81 159 0.0 0.9 0.00 0.00 0.00 32 1023.4
20260906195847 81 129 0.9 0.9 0.00 0.00 0.00 32 1023.4
20260906194845 80 145 0.9 0.9 0.00 0.00 0.00 32 1024.0
20260906193842 80 148 0.9 0.9 0.00 0.00 0.00 37 1024.0
20260906192838 80 148 1.7 1.7 0.00 0.00 0.00 34 1024.1
20260906191838 78 154 0.9 0.9 0.00 0.00 0.00 34 1024.2
20260906190838 80 164 0.9 0.9 0.00 0.00 0.00 33 1024.2
20260906185838 83 177 1.7 1.7 0.00 0.00 0.00 28 1024.3
20260906184837 81 156 1.7 2.6 0.00 0.00 0.00 30 1024.6
20260906183833 80 166 1.7 2.6 0.00 0.00 0.00 32 1024.7
20260906182829 80 151 0.9 0.9 0.00 0.00 0.00 32 1024.8
20260906181825 80 155 1.7 1.7 0.00 0.00 0.00 31 1025.0
20260906180823 80 157 0.9 0.9 0.00 0.00 0.00 33 1025.0
20260906175821 79 150 1.7 2.6 0.00 0.00 0.00 30 1025.1
20260906174815 78 164 0.9 0.9 0.00 0.00 0.00 32 1025.5
20260906173810 78 149 1.7 1.7 0.00 0.00 0.00 35 1025.6
20260906172810 77 150 0.0 0.9 0.00 0.00 0.00 37 1025.6
20260906171807 76 147 2.6 2.6 0.00 0.00 0.00 36 1025.8
20260906170804 75 155 0.9 0.9 0.00 0.00 0.00 41 1026.0
20260906165802 76 153 0.9 0.9 0.00 0.00 0.00 40 1025.7
20260906164801 77 157 1.7 1.7 0.00 0.00 0.00 39 1025.8
20260906163757 77 148 1.7 2.6 0.00 0.00 0.00 38 1025.6
20260906162757 76 142 0.9 0.9 0.00 0.00 0.00 39 1025.7
20260906161756 73 149 0.9 0.9 0.00 0.00 0.00 42 1025.7
20260906160754 74 151 1.7 1.7 0.00 0.00 0.00 40 1025.8
20260906155752 76 156 0.9 0.9 0.00 0.00 0.00 36 1025.7
20260906154749 76 155 2.6 3.5 0.00 0.00 0.00 36 1025.7
20260906153748 77 160 0.0 0.9 0.00 0.00 0.00 36 1025.5
20260906152744 75 156 0.0 0.0 0.00 0.00 0.00 37 1025.5
20260906151744 73 146 0.9 0.9 0.00 0.00 0.00 38 1025.3
20260906150741 70 185 1.7 1.7 0.00 0.00 0.00 42 1025.8
20260906145735 68 185 0.0 0.0 0.00 0.00 0.00 47 1025.6
20260906144735 67 185 0.0 0.0 0.00 0.00 0.00 46 1025.3
20260906143735 66 185 0.0 0.0 0.00 0.00 0.00 51 1025.3
20260906142732 65 185 0.9 0.9 0.00 0.00 0.00 50 1025.2
20260906141732 64 185 1.7 0.9 0.00 0.00 0.00 50 1025.1
20260906140727 62 186 1.7 1.7 0.00 0.00 0.00 52 1025.1
20260906135724 60 185 0.9 0.9 0.00 0.00 0.00 58 1025.2
20260906134721 60 185 1.7 1.7 0.00 0.00 0.00 54 1025.0
20260906133718 59 185 0.9 0.0 0.00 0.00 0.00 55 1025.2
20260906132714 58 185 0.9 0.9 0.00 0.00 0.00 55 1024.7
20260906131711 57 181 0.9 0.9 0.00 0.00 0.00 58 1024.8
20260906130707 57 181 0.9 0.9 0.00 0.00 0.00 56 1024.5
20260906125707 56 169 0.9 0.9 0.00 0.00 0.00 55 1024.7
20260906124706 55 164 0.9 0.9 0.00 0.00 0.00 59 1024.3
20260906123706 56 164 0.0 0.0 0.00 0.00 0.00 59 1024.2
20260906122701 57 164 0.0 0.0 0.00 0.00 0.00 57 1024.1
20260906121659 57 165 0.0 0.9 0.00 0.00 0.00 57 1024.2
20260906120656 59 165 0.0 0.0 0.00 0.00 0.00 53 1024.0
20260906115653 58 139 1.7 1.7 0.00 0.00 0.00 54 1023.8
20260906114653 58 172 0.9 0.9 0.00 0.00 0.00 55 1023.8
20260906113649 58 180 0.9 0.9 0.00 0.00 0.00 56 1024.1
20260906112648 58 180 0.9 0.0 0.00 0.00 0.00 58 1024.0
20260906111645 58 168 0.9 0.9 0.00 0.00 0.00 59 1024.3
20260906110640 58 201 1.7 1.7 0.00 0.00 0.00 58 1024.3
20260906105635 57 161 0.0 0.0 0.00 0.00 0.00 61 1024.2
20260906104631 58 161 0.0 0.0 0.00 0.00 0.00 61 1024.1
20260906103628 59 220 2.6 2.6 0.00 0.00 0.00 59 1024.3
20260906102625 59 175 0.0 0.0 0.00 0.00 0.00 60 1024.1
20260906101620 59 169 0.9 0.9 0.00 0.00 0.00 60 1024.3
20260906100616 57 164 0.9 0.9 0.00 0.00 0.00 61 1024.1
20260906095615 57 152 0.9 0.9 0.00 0.00 0.00 62 1024.6
20260906094610 58 152 0.9 0.9 0.00 0.00 0.00 60 1024.6
20260906093608 57 137 1.7 1.7 0.00 0.00 0.00 62 1024.1
20260906092603 57 140 1.7 1.7 0.00 0.00 0.00 66 1024.2
20260906091559 57 160 0.9 0.9 0.00 0.00 0.00 66 1024.3
20260906090556 56 154 0.9 0.9 0.00 0.00 0.00 67 1024.7
20260906085555 57 154 0.0 0.0 0.00 0.00 0.00 67 1024.7
20260906084551 57 154 0.0 0.0 0.00 0.00 0.00 67 1024.3
20260906083545 58 153 0.0 0.0 0.00 0.00 0.00 66 1024.3
20260906082540 58 153 0.0 0.0 0.00 0.00 0.00 66 1024.6
20260906081537 57 154 0.0 0.0 0.00 0.00 0.00 65 1024.7
20260906080535 57 154 0.0 0.0 0.00 0.00 0.00 65 1024.3
20260906075531 57 154 0.0 0.0 0.00 0.00 0.00 66 1024.5
20260906074526 58 154 0.0 0.0 0.00 0.00 0.00 63 1024.7
20260906073526 59 154 0.0 0.0 0.00 0.00 0.00 63 1024.6
20260906072522 59 154 0.0 0.0 0.00 0.00 0.00 60 1024.6
20260906071521 60 152 0.9 0.9 0.00 0.00 0.00 58 1024.5
20260906070518 59 205 1.7 1.7 0.00 0.00 0.00 60 1024.7
20260906065513 59 155 0.9 0.9 0.00 0.00 0.00 61 1024.7
20260906064510 60 164 0.0 0.0 0.00 0.00 0.00 65 1024.7
20260906063506 60 156 0.0 0.0 0.00 0.00 0.00 66 1024.8
20260906062502 60 155 0.9 0.0 0.00 0.00 0.00 65 1025.3
20260906061459 60 145 1.7 1.7 0.00 0.00 0.00 64 1024.7
20260906060456 61 154 0.0 0.0 0.00 0.00 0.00 66 1024.8
20260906055454 60 162 1.7 1.7 0.00 0.24 0.24 63 1025.0
20260906054449 62 158 0.0 0.0 0.00 0.24 0.24 65 1025.2
20260906053446 62 157 0.0 0.0 0.00 0.24 0.24 62 1025.1
20260906052443 61 157 0.0 0.0 0.00 0.24 0.24 64 1025.1
20260906051441 61 159 0.0 0.0 0.00 0.24 0.24 68 1025.1
20260906050436 61 158 0.0 0.0 0.00 0.24 0.24 62 1025.1
20260906045434 60 158 0.0 0.0 0.00 0.24 0.24 64 1025.1
20260906044431 61 158 0.0 0.0 0.00 0.24 0.24 63 1025.0
20260906043429 61 148 0.0 0.0 0.00 0.24 0.24 63 1025.5
20260906042423 61 148 0.9 0.9 0.00 0.24 0.24 63 1025.1
20260906041420 62 169 0.9 0.9 0.00 0.24 0.24 63 1025.2
20260906040415 62 169 0.0 0.0 0.00 0.24 0.24 59 1025.2
20260906035412 63 169 0.0 0.0 0.00 0.24 0.24 58 1024.7
20260906034407 64 169 0.0 0.0 0.00 0.24 0.24 57 1025.0
20260906033403 64 169 0.9 0.9 0.00 0.24 0.24 55 1024.8
20260906032400 65 169 0.0 0.0 0.00 0.24 0.24 57 1025.0
20260906031356 66 173 0.9 0.9 0.00 0.24 0.24 52 1024.8
20260906030352 67 174 0.9 0.9 0.00 0.24 0.24 52 1024.5
20260906025352 66 191 1.7 1.7 0.00 0.24 0.24 53 1024.5
20260906024350 66 183 0.9 0.9 0.00 0.24 0.24 55 1024.2
20260906023348 66 178 0.0 0.0 0.00 0.24 0.24 58 1024.2
20260906022343 67 178 0.0 0.0 0.00 0.24 0.24 57 1024.1
20260906021338 67 178 0.9 0.9 0.00 0.24 0.24 57 1023.8
20260906020338 67 178 0.9 0.9 0.00 0.24 0.24 60 1023.8
20260906015338 67 178 0.9 0.9 0.00 0.24 0.24 60 1023.7
20260906014339 66 178 0.0 0.0 0.00 0.24 0.24 66 1023.4
20260906013336 66 178 0.0 0.0 0.00 0.24 0.24 71 1023.3
20260906012332 67 178 0.0 0.0 0.00 0.24 0.24 71 1023.3
20260906011327 68 178 0.0 0.0 0.00 0.24 0.24 66 1023.6
20260906010325 69 178 0.0 0.0 0.00 0.24 0.24 65 1023.6
20260906005325 70 178 0.0 0.0 0.00 0.24 0.24 61 1023.7
20260906004324 72 178 0.0 0.0 0.00 0.24 0.24 57 1023.8
20260906003320 72 178 0.0 0.0 0.00 0.24 0.24 56 1023.7
20260906002321 73 178 1.7 1.7 0.00 0.24 0.24 55 1023.8
20260906001318 73 178 0.0 0.0 0.00 0.24 0.24 55 1023.6
20260906000313 74 178 0.9 0.9 0.00 0.24 0.24 53 1023.4
20260905235308 73 178 1.7 1.7 0.00 0.24 0.24 54 1023.6
20260905234304 74 170 0.0 0.0 0.00 0.24 0.24 56 1023.6
20260905233259 74 165 1.7 1.7 0.00 0.24 0.24 57 1024.0
20260905232254 73 181 0.9 0.9 0.00 0.24 0.24 57 1023.7
20260905231251 72 181 0.9 0.9 0.00 0.24 0.24 59 1023.7
20260905230251 69 181 0.0 0.0 0.00 0.24 0.24 64 1023.8
20260905225246 69 182 0.9 0.9 0.00 0.24 0.24 65 1024.1
20260905224241 70 182 1.7 1.7 0.00 0.24 0.24 60 1024.1
20260905223239 73 181 0.9 0.9 0.00 0.24 0.24 52 1024.2
20260905222234 73 170 0.9 0.9 0.00 0.24 0.24 53 1024.1